Location: Newark
(50.4348°N, 30.5552°E)
Time: 04:48:00
(UTC+00:00)

Altair - Pass Details

Date: 22 January 2020
Orbit: 1502 x 1682 km, 47.2° (Epoch: 18 February)

Event Time Altitude Azimuth Distance (km) Brightness Sun altitude
Rises 15:21:29 0° 286° (WNW) 4,913 11.1 -7.8°
Reaches altitude 10° 15:26:39 10° 265° (W) 3,894 11.1 -8.6°
Maximum altitude 15:31:18 14° 236° (SW) 3,512 10.7 -9.3°
Drops below altitude 10° 15:35:54 10° 207° (SSW) 3,821 10.3 -10.0°
Sets 15:40:55 0° 185° (S) 4,762 10.4 -10.7°
